AAL816 KJFK-MMUN

Flight info

Callsign AAL816
Flight time N/A
Altitude 40000
Route DCT WAVEY DCT EMJAY Q167 KALDA Q131 WAALT Y289 BAHAA DCT HIBAC AR17 VKZ DCT LINEY Y262 LULLS Y196 CANOA UB879 NOSAT DCT CUN DCT
Aircraft B772/H-SDE2E3FGHIJ5LORVWXY/LB1D1

Departure

Time N/A
Airport John F. Kennedy International Airport (KJFK)

Arrival

Time 2026-05-07 13:09
Airport Cancún International Airport (MMUN)
Time Latitude Longitude Altitude Speed Heading
2026-05-07 12:54 21.22937 -86.60380 15606 ft 341 kts 213°
2026-05-07 12:55 21.20966 -86.61788 15291 ft 340 kts 213°
2026-05-07 12:55 21.19001 -86.63192 15089 ft 336 kts 213°
2026-05-07 12:55 21.17067 -86.64573 14866 ft 330 kts 213°
2026-05-07 12:55 21.15230 -86.65884 14379 ft 315 kts 213°
2026-05-07 12:56 21.13420 -86.67175 13651 ft 310 kts 213°
2026-05-07 12:56 21.11632 -86.68449 12881 ft 306 kts 212°
2026-05-07 12:56 21.09881 -86.69708 12216 ft 299 kts 216°
2026-05-07 12:56 21.08528 -86.71322 11677 ft 289 kts 243°
2026-05-07 12:57 21.07989 -86.73357 10943 ft 286 kts 269°
2026-05-07 12:57 21.08235 -86.75440 10314 ft 280 kts 288°
2026-05-07 12:57 21.09043 -86.77294 9688 ft 273 kts 303°
2026-05-07 12:57 21.10075 -86.78941 9028 ft 269 kts 307°
2026-05-07 12:58 21.11143 -86.80584 8334 ft 268 kts 306°
2026-05-07 12:58 21.12203 -86.82220 7724 ft 264 kts 305°
2026-05-07 12:58 21.13229 -86.83825 7143 ft 260 kts 304°
2026-05-07 12:58 21.14245 -86.85436 6470 ft 262 kts 303°
2026-05-07 12:59 21.15259 -86.87053 5797 ft 262 kts 303°
2026-05-07 12:59 21.16265 -86.88660 5267 ft 257 kts 303°
2026-05-07 12:59 21.17258 -86.90247 4870 ft 255 kts 303°
2026-05-07 12:59 21.18210 -86.91770 4461 ft 244 kts 303°
2026-05-07 13:00 21.19146 -86.93272 4305 ft 245 kts 303°
2026-05-07 13:00 21.20104 -86.94808 4081 ft 251 kts 303°
2026-05-07 13:00 21.21075 -86.96366 3807 ft 250 kts 303°
2026-05-07 13:00 21.22036 -86.97906 3555 ft 248 kts 303°
2026-05-07 13:01 21.22994 -86.99440 3303 ft 246 kts 303°
2026-05-07 13:01 21.23940 -87.00958 3091 ft 241 kts 303°
2026-05-07 13:01 21.24654 -87.02498 2996 ft 224 kts 277°
2026-05-07 13:01 21.24483 -87.04073 2998 ft 210 kts 238°
2026-05-07 13:02 21.23552 -87.05150 2953 ft 196 kts 206°
2026-05-07 13:02 21.22340 -87.05807 2846 ft 194 kts 195°
2026-05-07 13:02 21.21059 -87.06158 2752 ft 184 kts 182°
2026-05-07 13:02 21.19844 -87.06182 2689 ft 166 kts 168°
2026-05-07 13:03 21.18786 -87.05888 2623 ft 154 kts 157°
2026-05-07 13:03 21.17832 -87.05409 2585 ft 152 kts 149°
2026-05-07 13:03 21.16959 -87.04786 2500 ft 150 kts 142°
2026-05-07 13:03 21.16144 -87.04065 2436 ft 153 kts 137°
2026-05-07 13:04 21.15375 -87.03280 2388 ft 152 kts 132°
2026-05-07 13:04 21.14692 -87.02448 2316 ft 150 kts 129°
2026-05-07 13:04 21.14008 -87.01596 2245 ft 152 kts 128°
2026-05-07 13:04 21.13361 -87.00719 2142 ft 149 kts 125°
2026-05-07 13:05 21.12762 -86.99813 2079 ft 149 kts 124°
2026-05-07 13:05 21.12177 -86.98893 2064 ft 150 kts 123°
2026-05-07 13:05 21.11599 -86.97970 2012 ft 148 kts 123°
2026-05-07 13:05 21.11056 -86.97097 1921 ft 136 kts 122°
2026-05-07 13:06 21.10565 -86.96309 1773 ft 126 kts 122°
2026-05-07 13:06 21.10086 -86.95540 1635 ft 124 kts 122°
2026-05-07 13:06 21.09606 -86.94768 1455 ft 124 kts 122°
2026-05-07 13:06 21.09134 -86.94011 1313 ft 122 kts 122°
2026-05-07 13:07 21.08660 -86.93250 1154 ft 123 kts 122°
2026-05-07 13:07 21.08184 -86.92485 996 ft 123 kts 122°
2026-05-07 13:07 21.07713 -86.91732 828 ft 120 kts 121°
2026-05-07 13:07 21.07257 -86.90990 691 ft 118 kts 123°
2026-05-07 13:08 21.06816 -86.90238 578 ft 121 kts 125°
2026-05-07 13:08 21.06343 -86.89510 409 ft 124 kts 127°
2026-05-07 13:08 21.05851 -86.88752 320 ft 120 kts 124°
2026-05-07 13:08 21.05419 -86.88047 54 ft 107 kts 126°
2026-05-07 13:09 21.05048 -86.87459 29 ft 74 kts 123°
2026-05-07 13:09 21.04862 -86.87160 26 ft 27 kts 123°
2026-05-07 13:09 21.04773 -86.87020 29 ft 25 kts 123°
2026-05-07 13:09 21.04663 -86.86842 26 ft 28 kts 123°
2026-05-07 13:10 21.04560 -86.86678 28 ft 26 kts 124°
2026-05-07 13:10 21.04454 -86.86520 31 ft 26 kts 128°
2026-05-07 13:10 21.04314 -86.86397 28 ft 26 kts 153°
2026-05-07 13:10 21.04151 -86.86310 24 ft 21 kts 153°
2026-05-07 13:11 21.04112 -86.86279 25 ft 0 kts 135°
2026-05-07 13:11 21.04108 -86.86275 22 ft 0 kts 131°
2026-05-07 13:11 21.04073 -86.86238 26 ft 24 kts 150°
2026-05-07 13:11 21.03879 -86.86325 25 ft 45 kts 215°
2026-05-07 13:12 21.03645 -86.86490 22 ft 27 kts 212°
2026-05-07 13:12 21.03575 -86.86552 26 ft 8 kts 237°
2026-05-07 13:12 21.03573 -86.86629 24 ft 17 kts 269°
2026-05-07 13:12 21.03552 -86.86712 27 ft 0 kts 276°
2026-05-07 13:13 21.03581 -86.86768 25 ft 11 kts 306°
2026-05-07 13:13 21.03585 -86.86774 23 ft 0 kts 305°